Date String (YYYY-MM-DD hh:mm:ss) UTC,Instrument flags,absolute air pressure of the measurement (hPa),sample flow rate (lpm),inlet stack bypass flow (lpm),air temperature of the measurement (°C),ambient temperature measured by the external sensor (°C),aerosol sample conditioner tube jacket temperature (°C),OPC LED temperature (°C),internal box temperature (°C),relative humidity of the measurement (%),span deviation,mass concentration of particles derived from Lorenz-Mie calculation of OPC scattering (μg/m³),mass concentration of particles derived from Lorenz-Mie calculation of OPC scattering (μg/m³),mass concentration of particles derived from Lorenz-Mie calculation of OPC scattering (μg/m³)
DateTimeUTC,F1_M11,P_M11,Q1_M11,Q2_M11,T1_M11,T2_M11,T3_M11,T4_M11,T5_M11,U1_M11,ZSPAN_M11,X0_M11,X2_M11,X1_M11
2023-12-26 01:00:00,SystemResetWarning,0826.3,4.99,000.00,018.7,017.7,000.0,027.2,020.0,11.1,0000.0,0009.27,0005.36,0005.04
2023-12-26 01:01:00,SystemResetWarning,0826.3,4.99,000.00,018.7,017.7,000.0,027.2,020.0,11.1,0000.0,0008.28,0005.32,0005.01
2023-12-26 01:02:00,SystemResetWarning,0826.3,5.00,000.00,018.7,017.6,000.0,027.2,020.0,11.2,0000.0,0008.21,0005.27,0004.97
2023-12-26 01:03:00,SystemResetWarning,0826.3,5.02,000.00,018.7,017.6,000.0,027.2,020.0,11.3,0000.0,0008.28,0005.25,0004.94
2023-12-26 01:04:00,SystemResetWarning,0826.3,5.00,000.00,018.7,017.5,000.0,027.2,020.0,11.3,0000.0,0008.93,0005.23,0004.91
2023-12-26 01:05:00,SystemResetWarning,0826.3,4.99,000.00,018.7,017.5,000.0,027.2,020.0,11.4,0000.0,0009.27,0005.22,0004.88
2023-12-26 01:06:00,SystemResetWarning,0826.2,4.99,000.00,018.7,017.5,000.0,027.2,020.0,11.5,0000.0,0009.72,0005.19,0004.85
2023-12-26 01:07:00,SystemResetWarning,0826.2,5.01,000.00,018.7,017.4,000.0,027.2,020.0,11.5,0000.0,0009.78,0005.19,0004.84
2023-12-26 01:08:00,SystemResetWarning,0826.2,5.01,000.00,018.7,017.4,000.0,027.2,020.0,11.6,0000.0,0010.10,0005.22,0004.84
2023-12-26 01:09:00,SystemResetWarning,0826.2,5.01,000.00,018.7,017.4,000.0,027.2,020.0,11.6,0000.0,0009.88,0005.31,0004.89
2023-12-26 01:10:00,SystemResetWarning,0826.2,5.01,000.00,018.7,017.4,000.0,027.2,020.0,11.6,0000.0,0009.89,0005.36,0004.97
2023-12-26 01:11:00,SystemResetWarning,0826.3,5.00,000.00,018.6,017.4,000.0,027.2,020.0,11.7,0000.0,0010.02,0005.44,0005.04
2023-12-26 01:12:00,SystemResetWarning,0826.4,4.99,000.00,018.6,017.4,000.0,027.2,020.0,11.6,0000.0,0010.31,0005.57,0005.12
2023-12-26 01:13:00,SystemResetWarning,0826.4,4.99,000.00,018.6,017.3,000.0,027.2,020.0,11.8,0000.0,0010.41,0005.63,0005.18
2023-12-26 01:14:00,SystemResetWarning,0826.4,5.00,000.00,018.6,017.4,000.0,027.2,020.1,11.9,0000.0,0010.63,0005.68,0005.22
2023-12-26 01:15:00,SystemResetWarning,0826.4,5.01,000.00,018.7,017.9,000.0,027.1,020.4,11.9,0000.0,0010.15,0005.71,0005.25
2023-12-26 01:16:00,SystemResetWarning,0826.4,5.00,000.00,018.8,018.5,000.0,027.1,020.7,11.9,0000.0,0009.84,0005.74,0005.28
2023-12-26 01:17:00,SystemResetWarning,0826.4,4.98,000.00,018.9,018.6,000.0,027.1,020.4,11.8,0000.0,0009.44,0005.77,0005.29
2023-12-26 01:18:00,SystemResetWarning,0826.4,5.01,000.00,018.9,018.5,000.0,027.1,020.1,11.9,0000.0,0009.43,0005.77,0005.30
2023-12-26 01:19:00,SystemResetWarning,0826.3,5.01,000.00,018.8,018.4,000.0,027.1,020.0,12.0,0000.0,0009.03,0005.69,0005.26
2023-12-26 01:20:00,SystemResetWarning,0826.3,4.99,000.00,018.8,018.3,000.0,027.1,020.0,12.1,0000.0,0008.78,0005.55,0005.18
2023-12-26 01:21:00,SystemResetWarning,0826.3,5.00,000.00,018.8,018.2,000.0,027.1,020.0,12.1,0000.0,0008.66,0005.45,0005.09
2023-12-26 01:22:00,SystemResetWarning,0826.3,4.99,000.00,018.8,018.1,000.0,027.1,020.0,12.2,0000.0,0008.54,0005.38,0005.04
2023-12-26 01:23:00,SystemResetWarning,0826.3,5.00,000.00,018.8,017.9,000.0,027.2,020.0,12.3,0000.0,0008.34,0005.30,0005.00
2023-12-26 01:24:00,SystemResetWarning,0826.3,5.01,000.00,018.7,017.9,000.0,027.2,020.0,12.3,0000.0,0008.24,0005.26,0004.99
2023-12-26 01:25:00,SystemResetWarning,0826.3,5.00,000.00,018.7,017.8,000.0,027.2,020.0,12.2,0000.0,0008.19,0005.26,0004.99
2023-12-26 01:26:00,SystemResetWarning,0826.3,4.99,000.00,018.7,017.7,000.0,027.2,020.0,12.1,0000.0,0008.18,0005.28,0005.01
2023-12-26 01:27:00,SystemResetWarning,0826.2,5.00,000.00,018.7,017.7,000.0,027.2,020.0,12.0,0000.0,0008.46,0005.28,0005.02
2023-12-26 01:28:00,SystemResetWarning,0826.2,5.00,000.00,018.7,017.6,000.0,027.2,020.0,12.0,0000.0,0008.75,0005.24,0005.01
2023-12-26 01:29:00,SystemResetWarning,0826.2,5.01,000.00,018.7,017.6,000.0,027.2,020.0,12.1,0000.0,0008.69,0005.21,0005.00
2023-12-26 01:30:00,SystemResetWarning,0826.2,5.01,000.00,018.7,017.5,000.0,027.2,020.0,12.1,0000.0,0008.70,0005.23,0005.02
2023-12-26 01:31:00,SystemResetWarning,0826.2,4.99,000.00,018.7,017.5,000.0,027.2,020.0,12.2,0000.0,0008.84,0005.29,0005.04
2023-12-26 01:32:00,SystemResetWarning,0826.2,5.00,000.00,018.7,017.5,000.0,027.2,020.0,12.2,0000.0,0008.91,0005.32,0005.07
2023-12-26 01:33:00,SystemResetWarning,0826.2,5.00,000.00,018.7,017.5,000.0,027.2,020.0,12.2,0000.0,0008.96,0005.34,0005.07
2023-12-26 01:34:00,SystemResetWarning,0826.2,5.00,000.00,018.6,017.4,000.0,027.2,020.0,12.2,0000.0,0008.93,0005.33,0005.05
2023-12-26 01:35:00,SystemResetWarning,0826.2,4.99,000.00,018.6,017.4,000.0,027.2,020.0,12.1,0000.0,0009.02,0005.31,0005.01
2023-12-26 01:36:00,SystemResetWarning,0826.2,5.00,000.00,018.6,017.3,000.0,027.2,020.0,12.1,0000.0,0008.89,0005.25,0004.95
2023-12-26 01:37:00,SystemResetWarning,0826.1,5.01,000.00,018.6,017.3,000.0,027.2,020.0,12.1,0000.0,0008.67,0005.16,0004.88
2023-12-26 01:38:00,SystemResetWarning,0826.1,5.01,000.00,018.6,017.3,000.0,027.2,020.0,12.1,0000.0,0008.46,0005.12,0004.84
2023-12-26 01:39:00,SystemResetWarning,0826.0,5.01,000.00,018.6,017.3,000.0,027.2,020.0,12.0,0000.0,0008.12,0005.10,0004.82
2023-12-26 01:40:00,SystemResetWarning,0826.0,5.00,000.00,018.6,017.3,000.0,027.2,020.1,11.9,0000.0,0008.04,0005.10,0004.82
2023-12-26 01:41:00,SystemResetWarning,0826.0,5.00,000.00,018.7,017.7,000.0,027.2,020.4,11.9,0000.0,0008.14,0005.10,0004.82
2023-12-26 01:42:00,SystemResetWarning,0826.1,5.00,000.00,018.8,018.5,000.0,027.1,020.7,11.8,0000.0,0008.15,0005.07,0004.82
2023-12-26 01:43:00,SystemResetWarning,0826.0,4.99,000.00,018.9,018.6,000.0,027.1,020.4,11.7,0000.0,0008.09,0005.04,0004.79
2023-12-26 01:44:00,SystemResetWarning,0826.0,4.99,000.00,018.9,018.5,000.0,027.1,020.2,11.6,0000.0,0008.07,0004.99,0004.75
2023-12-26 01:45:00,SystemResetWarning,0826.0,4.99,000.00,018.8,018.4,000.0,027.1,020.0,11.7,0000.0,0008.07,0004.95,0004.71
2023-12-26 01:46:00,SystemResetWarning,0826.1,5.01,000.00,018.8,018.3,000.0,027.1,020.0,11.7,0000.0,0008.00,0004.92,0004.68
2023-12-26 01:47:00,SystemResetWarning,0826.0,5.01,000.00,018.8,018.1,000.0,027.1,020.0,11.7,0000.0,0008.04,0004.89,0004.65
2023-12-26 01:48:00,SystemResetWarning,0825.9,5.00,000.00,018.8,018.0,000.0,027.1,020.0,11.7,0000.0,0007.99,0004.89,0004.65
2023-12-26 01:49:00,SystemResetWarning,0825.9,5.00,000.00,018.7,017.9,000.0,027.2,020.0,11.6,0000.0,0007.87,0004.88,0004.64
2023-12-26 01:50:00,SystemResetWarning,0825.9,4.99,000.00,018.7,017.7,000.0,027.2,020.0,11.6,0000.0,0007.66,0004.84,0004.63
2023-12-26 01:51:00,SystemResetWarning,0825.9,4.99,000.00,018.7,017.7,000.0,027.2,020.0,11.6,0000.0,0007.63,0004.83,0004.62
2023-12-26 01:52:00,SystemResetWarning,0825.9,5.00,000.00,018.7,017.5,000.0,027.2,020.0,11.6,0000.0,0007.53,0004.79,0004.60
2023-12-26 01:53:00,SystemResetWarning,0825.9,5.01,000.00,018.7,017.5,000.0,027.2,020.0,11.6,0000.0,0007.38,0004.74,0004.56
2023-12-26 01:54:00,SystemResetWarning,0825.9,5.01,000.00,018.7,017.4,000.0,027.2,020.0,11.6,0000.0,0007.43,0004.74,0004.54
2023-12-26 01:55:00,SystemResetWarning,0825.9,5.00,000.00,018.7,017.4,000.0,027.2,020.0,11.6,0000.0,0007.40,0004.73,0004.51
2023-12-26 01:56:00,SystemResetWarning,0825.9,5.00,000.00,018.6,017.3,000.0,027.2,020.0,11.6,0000.0,0007.34,0004.70,0004.47
2023-12-26 01:57:00,SystemResetWarning,0825.9,4.99,000.00,018.6,017.3,000.0,027.2,020.0,11.6,0000.0,0007.20,0004.65,0004.43
2023-12-26 01:58:00,SystemResetWarning,0825.9,5.00,000.00,018.6,017.3,000.0,027.2,020.0,11.6,0000.0,0006.85,0004.61,0004.39
2023-12-26 01:59:00,SystemResetWarning,0825.9,4.99,000.00,018.6,017.2,000.0,027.2,020.0,11.6,0000.0,0006.71,0004.55,0004.34
